Weather History for St. Petersburg, FL

Change the Weather History Date:

Monday, January 20, 2014

  Actual Average Record
Temperature  
Mean Temperature 60 °F -  
Max Temperature 66 °F 68 °F 82 °F (1949)
Min Temperature 55 °F 53 °F 30 °F (1971)
Degree Days  
Heating Degree Days 4    
Growing Degree Days 10 (Base 50)    
Moisture  
Dew Point 55 °F    
Average Humidity 88    
Maximum Humidity 100    
Minimum Humidity 59    
Precipitation  
Precipitation 0.00 in - - ()
Sea Level Pressure  
Sea Level Pressure 30.11 in    
Wind  
Wind Speed 4 mph (WSW)    
Max Wind Speed 12 mph    
Max Gust Speed -    
Visibility 7 miles    
Events Fog    
Averages and records for this station are not official NWS values.
T = Trace of Precipitation, MM = Missing Value Source: NWS Daily Summary

Daily Weather History Graph

Daily Weather History Graph

Search for Another Location

Airport:

Trip Planner

Search our weather history database for the weather conditions in past years. The results will help you decide how hot, cold, wet, or windy it might be!

Date:

Astronomy

Jan. 20, 2014 Rise Set
Actual Time 7:21 AM EST 6:01 PM EST
Civil Twilight 6:56 AM EST 6:26 PM EST
Nautical Twilight 6:28 AM EST 6:55 PM EST
Astronomical Twilight 6:00 AM EST 7:23 PM EST
Moon 10:07 PM EST (1/20) 9:45 AM EST (1/20)
Length of Visible Light 11h 29m
Length of Day
10h 39m
Waning Gibbous, 83% of the Moon is Illuminated
Jan 20
Waning Gibbous
Jan 24
Last Quarter
Jan 30
New
Feb 6
First Quarter
Feb 14
Full

Hourly Weather History & Observations

Time (EST) Temp. Dew Point Humidity Pressure Visibility Wind Dir Wind Speed Gust Speed Precip Events Conditions
12:53 AM 57.0 °F 53.1 °F 87% 30.12 in 10.0 mi WSW 5.8 mph - N/A   Clear
1:53 AM 55.9 °F 54.0 °F 93% 30.12 in 10.0 mi WSW 4.6 mph - N/A   Clear
2:53 AM 55.9 °F 55.0 °F 97% 30.12 in 9.0 mi WSW 3.5 mph - N/A   Clear
3:53 AM 55.0 °F 55.0 °F 100% 30.12 in 4.0 mi SSW 3.5 mph - N/A   Clear
3:57 AM 55.0 °F 54.0 °F 96% 30.12 in 1.8 mi SSW 3.5 mph - N/A   Partly Cloudy
4:10 AM 55.9 °F 55.0 °F 97% 30.12 in 0.8 mi SSW 3.5 mph - N/A   Mist
4:31 AM 55.0 °F 55.0 °F 100% 30.12 in 2.0 mi WNW 3.5 mph - N/A   Mostly Cloudy
4:33 AM 55.9 °F 55.0 °F 97% 30.12 in 3.0 mi WNW 3.5 mph - N/A   Scattered Clouds
4:53 AM 57.9 °F 57.0 °F 97% 30.12 in 10.0 mi WNW 4.6 mph - N/A   Clear
5:08 AM 57.0 °F 57.0 °F 100% 30.12 in 9.0 mi NNW 4.6 mph - N/A   Scattered Clouds
5:53 AM 55.9 °F 53.1 °F 90% 30.12 in 10.0 mi North 4.6 mph - N/A   Clear
6:53 AM 55.0 °F 53.1 °F 93% 30.14 in 10.0 mi Calm Calm - N/A   Clear
7:53 AM 55.0 °F 53.1 °F 93% 30.15 in 10.0 mi Calm Calm - N/A   Clear
8:24 AM 55.0 °F 54.0 °F 96% 30.15 in 2.0 mi ESE 3.5 mph - N/A   Partly Cloudy
8:26 AM 55.9 °F 54.0 °F 93% 30.15 in 0.2 mi Calm Calm - N/A Fog Fog
8:53 AM 55.0 °F 55.0 °F 100% 30.16 in 0.2 mi Calm Calm - N/A Fog Fog
9:23 AM 55.9 °F 55.9 °F 100% 30.16 in 1.0 mi East 4.6 mph - N/A Fog Fog
9:39 AM 55.9 °F 55.9 °F 100% 30.16 in 5.0 mi ENE 5.8 mph - N/A   Partly Cloudy
9:53 AM 57.0 °F 55.9 °F 96% 30.17 in 5.0 mi East 4.6 mph - N/A   Partly Cloudy
10:53 AM 59.0 °F 53.1 °F 81% 30.17 in 10.0 mi SSE 5.8 mph - N/A   Clear
11:53 AM 61.0 °F 52.0 °F 72% 30.14 in 10.0 mi SE 4.6 mph - N/A   Clear
12:53 PM 64.0 °F 52.0 °F 65% 30.09 in 10.0 mi SE 4.6 mph - N/A   Clear
1:53 PM 66.9 °F 52.0 °F 59% 30.06 in 10.0 mi WNW 8.1 mph - N/A   Clear
2:53 PM 66.0 °F 52.0 °F 60% 30.06 in 10.0 mi West 11.5 mph - N/A   Clear
3:53 PM 64.9 °F 53.1 °F 65% 30.05 in 10.0 mi West 9.2 mph - N/A   Clear
4:53 PM 64.9 °F 55.0 °F 70% 30.06 in 10.0 mi West 8.1 mph - N/A   Clear
5:53 PM 64.0 °F 55.9 °F 75% 30.06 in 10.0 mi SW 4.6 mph - N/A   Clear
6:53 PM 63.0 °F 57.0 °F 81% 30.06 in 10.0 mi SW 4.6 mph - N/A   Clear
7:53 PM 61.0 °F 57.0 °F 87% 30.06 in 10.0 mi SW 3.5 mph - N/A   Partly Cloudy
8:53 PM 61.0 °F 57.0 °F 87% 30.07 in 10.0 mi SW 4.6 mph - N/A   Clear
9:53 PM 60.1 °F 57.9 °F 93% 30.07 in 10.0 mi SW 4.6 mph - N/A   Clear
10:53 PM 61.0 °F 59.0 °F 93% 30.06 in 10.0 mi SW 3.5 mph - N/A   Partly Cloudy
11:53 PM 60.1 °F 59.0 °F 96% 30.05 in 8.0 mi WSW 4.6 mph - N/A   Partly Cloudy